Year,Month,Day,Hour,Minute,Value (Times are PST for temperature in C)
2021,08,11,11,38,27.10
2021,08,11,11,39,27.10
2021,08,11,11,40,27.00
2021,08,11,11,41,27.00
2021,08,11,11,42,27.00
2021,08,11,11,43,27.00
2021,08,11,11,44,27.10
2021,08,11,11,45,27.10
2021,08,11,11,46,27.20
2021,08,11,11,47,27.30
2021,08,11,11,48,27.30
2021,08,11,11,49,27.40
2021,08,11,11,50,27.50
2021,08,11,11,51,27.50
2021,08,11,11,52,27.60
2021,08,11,11,53,27.60
2021,08,11,11,54,27.70
2021,08,11,11,55,27.70
2021,08,11,11,56,27.70
2021,08,11,11,57,27.70
2021,08,11,11,58,27.70
2021,08,11,11,59,27.60
2021,08,11,12,00,27.50
2021,08,11,12,01,27.50
2021,08,11,12,02,27.40
2021,08,11,12,03,27.30
2021,08,11,12,04,27.30
2021,08,11,12,05,27.30
2021,08,11,12,06,27.30
2021,08,11,12,07,27.30
2021,08,11,12,08,27.40
2021,08,11,12,09,27.50
2021,08,11,12,10,27.60
2021,08,11,12,11,27.60
2021,08,11,12,12,27.70
2021,08,11,12,13,27.80
2021,08,11,12,14,27.80
2021,08,11,12,15,27.80
2021,08,11,12,16,27.80
2021,08,11,12,17,27.80
2021,08,11,12,18,27.80
2021,08,11,12,19,27.80
2021,08,11,12,20,27.70
2021,08,11,12,21,27.60
2021,08,11,12,22,27.50
2021,08,11,12,23,27.50
2021,08,11,12,24,27.40
2021,08,11,12,25,27.50
2021,08,11,12,26,27.50
2021,08,11,12,27,27.50
2021,08,11,12,28,27.60
2021,08,11,12,29,27.60
2021,08,11,12,30,27.60
2021,08,11,12,31,27.70
2021,08,11,12,32,27.80
2021,08,11,12,33,27.80
2021,08,11,12,34,27.80
2021,08,11,12,35,27.80
2021,08,11,12,36,27.90
2021,08,11,12,37,27.90
2021,08,11,12,38,27.90
2021,08,11,12,39,27.90
2021,08,11,12,40,28.00
2021,08,11,12,41,28.00
2021,08,11,12,42,28.00
2021,08,11,12,43,28.00
2021,08,11,12,44,28.00
2021,08,11,12,45,28.10
2021,08,11,12,46,28.10
2021,08,11,12,47,28.10
2021,08,11,12,48,28.10
2021,08,11,12,49,28.10
2021,08,11,12,50,28.10
2021,08,11,12,51,28.10
2021,08,11,12,52,28.10
2021,08,11,12,53,28.10
2021,08,11,12,54,28.10
2021,08,11,12,55,28.10
2021,08,11,12,56,28.10
2021,08,11,12,57,28.10
2021,08,11,12,58,28.20
2021,08,11,12,59,28.20
2021,08,11,13,00,28.20
2021,08,11,13,01,28.30
2021,08,11,13,02,28.40
2021,08,11,13,03,28.40
2021,08,11,13,04,28.50
2021,08,11,13,05,28.50
2021,08,11,13,06,28.60
2021,08,11,13,07,28.70
2021,08,11,13,08,28.70
2021,08,11,13,09,28.80
2021,08,11,13,10,28.70
2021,08,11,13,11,28.70
2021,08,11,13,12,28.60
2021,08,11,13,13,28.60
2021,08,11,13,14,28.60
2021,08,11,13,15,28.60
2021,08,11,13,16,28.60
2021,08,11,13,17,28.60
2021,08,11,13,18,28.60
2021,08,11,13,19,28.70
2021,08,11,13,20,28.80
2021,08,11,13,21,28.80
2021,08,11,13,22,28.90
2021,08,11,13,23,28.90
2021,08,11,13,24,28.90
2021,08,11,13,25,28.90
2021,08,11,13,26,28.90
2021,08,11,13,27,28.90
2021,08,11,13,28,28.90
2021,08,11,13,29,28.90
2021,08,11,13,30,28.90
2021,08,11,13,31,29.00
2021,08,11,13,32,29.00
2021,08,11,13,33,29.10
2021,08,11,13,34,29.10
2021,08,11,13,35,29.10
2021,08,11,13,36,29.10
2021,08,11,13,37,29.20
2021,08,11,13,38,29.20
2021,08,11,13,39,29.20
2021,08,11,13,40,29.20
2021,08,11,13,41,29.30
2021,08,11,13,42,29.30
2021,08,11,13,43,29.40
2021,08,11,13,44,29.40
2021,08,11,13,45,29.40
2021,08,11,13,46,29.50
2021,08,11,13,47,29.50
2021,08,11,13,48,29.60
2021,08,11,13,49,29.50
2021,08,11,13,50,29.50
2021,08,11,13,51,29.50
2021,08,11,13,52,29.40
2021,08,11,13,53,29.40
2021,08,11,13,54,29.40
2021,08,11,13,55,29.40
2021,08,11,13,56,29.40
2021,08,11,13,57,29.40
2021,08,11,13,58,29.40
2021,08,11,13,59,29.30
2021,08,11,14,00,29.30
2021,08,11,14,01,29.30
2021,08,11,14,02,29.30
2021,08,11,14,03,29.30
2021,08,11,14,04,29.40
2021,08,11,14,05,29.50
2021,08,11,14,06,29.60
2021,08,11,14,07,29.60
2021,08,11,14,08,29.60
2021,08,11,14,09,29.50
2021,08,11,14,10,29.50
2021,08,11,14,11,29.40
2021,08,11,14,12,29.30
2021,08,11,14,13,29.20
2021,08,11,14,14,29.20
2021,08,11,14,15,29.10
2021,08,11,14,16,29.10
2021,08,11,14,17,29.10
2021,08,11,14,18,29.10
2021,08,11,14,19,29.00
2021,08,11,14,20,28.90
2021,08,11,14,21,28.90
2021,08,11,14,22,28.80
2021,08,11,14,23,28.80
2021,08,11,14,24,28.80
2021,08,11,14,25,28.80
2021,08,11,14,26,28.80
2021,08,11,14,27,28.80
2021,08,11,14,28,28.80
2021,08,11,14,29,28.90
2021,08,11,14,30,28.90
2021,08,11,14,31,28.90
2021,08,11,14,32,29.00
2021,08,11,14,33,29.00
2021,08,11,14,34,28.90
2021,08,11,14,35,28.90
2021,08,11,14,36,28.90
2021,08,11,14,37,28.90
2021,08,11,14,38,28.90
2021,08,11,14,39,29.00
2021,08,11,14,40,29.10
2021,08,11,14,41,29.20
2021,08,11,14,42,29.20
2021,08,11,14,43,29.30
2021,08,11,14,44,29.40
2021,08,11,14,45,29.50
2021,08,11,14,46,29.60
2021,08,11,14,47,29.70
2021,08,11,14,48,29.80
2021,08,11,14,49,29.90
2021,08,11,14,50,30.00
2021,08,11,14,51,30.00
2021,08,11,14,52,30.10
2021,08,11,14,53,30.10
2021,08,11,14,54,30.20
2021,08,11,14,55,30.20
2021,08,11,14,56,30.30
2021,08,11,14,57,30.40
2021,08,11,14,58,30.50
2021,08,11,14,59,30.60
2021,08,11,15,00,30.60
2021,08,11,15,01,30.70
2021,08,11,15,02,30.70
2021,08,11,15,03,30.80
2021,08,11,15,04,30.80
2021,08,11,15,05,30.90
2021,08,11,15,06,30.90
2021,08,11,15,07,31.00
2021,08,11,15,08,31.00
2021,08,11,15,09,31.00
2021,08,11,15,10,30.90
2021,08,11,15,11,30.90
2021,08,11,15,12,30.90
2021,08,11,15,13,30.90
2021,08,11,15,14,30.90
2021,08,11,15,15,30.90
2021,08,11,15,16,30.90
2021,08,11,15,17,31.00
2021,08,11,15,18,31.00
2021,08,11,15,19,30.90
2021,08,11,15,20,31.00
2021,08,11,15,21,30.90
2021,08,11,15,22,30.80
2021,08,11,15,23,30.70
2021,08,11,15,24,30.70
2021,08,11,15,25,30.60
2021,08,11,15,26,30.60
2021,08,11,15,27,30.60
2021,08,11,15,28,30.60
2021,08,11,15,29,30.60
2021,08,11,15,30,30.60
2021,08,11,15,31,30.70
2021,08,11,15,32,30.80
2021,08,11,15,33,30.80
2021,08,11,15,34,30.90
2021,08,11,15,35,30.90
2021,08,11,15,36,30.80
2021,08,11,15,37,30.80
2021,08,11,15,38,30.80
2021,08,11,15,39,30.80
2021,08,11,15,40,30.70
2021,08,11,15,41,30.70
2021,08,11,15,42,30.60
2021,08,11,15,43,30.60
2021,08,11,15,44,30.50
2021,08,11,15,45,30.40
2021,08,11,15,46,30.40
2021,08,11,15,47,30.40
2021,08,11,15,48,30.40
2021,08,11,15,49,30.40
2021,08,11,15,50,30.40
2021,08,11,15,51,30.40
2021,08,11,15,52,30.50
2021,08,11,15,53,30.50
2021,08,11,15,54,30.60
2021,08,11,15,55,30.60
2021,08,11,15,56,30.70
2021,08,11,15,57,30.80
2021,08,11,15,58,30.80
2021,08,11,15,59,30.80
2021,08,11,16,00,30.80
2021,08,11,16,01,30.70
2021,08,11,16,02,30.70
2021,08,11,16,03,30.70
2021,08,11,16,04,30.70
2021,08,11,16,05,30.70
2021,08,11,16,06,30.70
2021,08,11,16,07,30.70
2021,08,11,16,08,30.70
2021,08,11,16,09,30.70
2021,08,11,16,10,30.70
2021,08,11,16,11,30.70
2021,08,11,16,12,30.70
2021,08,11,16,13,30.70
2021,08,11,16,14,30.70
2021,08,11,16,15,30.80
2021,08,11,16,16,30.90
2021,08,11,16,17,31.00
2021,08,11,16,18,31.10
2021,08,11,16,19,31.20
2021,08,11,16,20,31.20
2021,08,11,16,21,31.20
2021,08,11,16,22,31.20
2021,08,11,16,23,31.20
2021,08,11,16,24,31.20
2021,08,11,16,25,31.20
2021,08,11,16,26,31.20
2021,08,11,16,27,31.20
2021,08,11,16,28,31.20
2021,08,11,16,29,31.20
2021,08,11,16,30,31.20
2021,08,11,16,31,31.20
2021,08,11,16,32,31.10
2021,08,11,16,33,31.00
2021,08,11,16,34,30.90
2021,08,11,16,35,30.80
2021,08,11,16,36,30.70
2021,08,11,16,37,30.60
2021,08,11,16,38,30.60
2021,08,11,16,39,30.60
2021,08,11,16,40,30.60
2021,08,11,16,41,30.60
2021,08,11,16,42,30.70
2021,08,11,16,43,30.70
2021,08,11,16,44,30.70
2021,08,11,16,45,30.70
2021,08,11,16,46,30.70
2021,08,11,16,47,30.70
2021,08,11,16,48,30.70
2021,08,11,16,49,30.60
2021,08,11,16,50,30.60
2021,08,11,16,51,30.50
2021,08,11,16,52,30.50
2021,08,11,16,53,30.50
2021,08,11,16,54,30.50
2021,08,11,16,55,30.50
2021,08,11,16,56,30.50
2021,08,11,16,57,30.50
2021,08,11,16,58,30.50
2021,08,11,16,59,30.50
2021,08,11,17,00,30.40
2021,08,11,17,01,30.50
2021,08,11,17,02,30.50
2021,08,11,17,03,30.50
2021,08,11,17,04,30.50
2021,08,11,17,05,30.60
2021,08,11,17,06,30.60
2021,08,11,17,07,30.60
2021,08,11,17,08,30.70
2021,08,11,17,09,30.70
2021,08,11,17,10,30.70
2021,08,11,17,11,30.70
2021,08,11,17,12,30.70
2021,08,11,17,13,30.80
2021,08,11,17,14,30.80
2021,08,11,17,15,30.80
2021,08,11,17,16,30.90
2021,08,11,17,17,30.90
2021,08,11,17,18,31.00
2021,08,11,17,19,31.00
2021,08,11,17,20,31.10
2021,08,11,17,21,31.10
2021,08,11,17,22,31.10
2021,08,11,17,23,31.00
2021,08,11,17,24,30.90
2021,08,11,17,25,30.80
2021,08,11,17,26,30.70
2021,08,11,17,27,30.60
2021,08,11,17,28,30.50
2021,08,11,17,29,30.40
2021,08,11,17,30,30.40
2021,08,11,17,31,30.50
2021,08,11,17,32,30.50
2021,08,11,17,33,30.60
2021,08,11,17,34,30.60
2021,08,11,17,35,30.70
2021,08,11,17,36,30.80
2021,08,11,17,37,30.80
2021,08,11,17,38,30.80
2021,08,11,17,39,30.90
2021,08,11,17,40,30.90
2021,08,11,17,41,30.80
2021,08,11,17,42,30.80
2021,08,11,17,43,30.70
2021,08,11,17,44,30.60
2021,08,11,17,45,30.60
2021,08,11,17,46,30.50
2021,08,11,17,47,30.40
2021,08,11,17,48,30.40
2021,08,11,17,49,30.40
2021,08,11,17,50,30.40
2021,08,11,17,51,30.30
2021,08,11,17,52,30.30
2021,08,11,17,53,30.20
2021,08,11,17,54,30.10
2021,08,11,17,55,30.00
2021,08,11,17,56,29.90
2021,08,11,17,57,29.80
2021,08,11,17,58,29.80
2021,08,11,17,59,29.70
2021,08,11,18,00,29.70
2021,08,11,18,01,29.60
2021,08,11,18,02,29.50
2021,08,11,18,03,29.40
2021,08,11,18,04,29.30
2021,08,11,18,05,29.30
2021,08,11,18,06,29.20
2021,08,11,18,07,29.10
2021,08,11,18,08,29.10
2021,08,11,18,09,29.00
2021,08,11,18,10,28.90
2021,08,11,18,11,28.90
2021,08,11,18,12,28.90
2021,08,11,18,13,28.90
2021,08,11,18,14,28.90
2021,08,11,18,15,28.90
2021,08,11,18,16,28.90
2021,08,11,18,17,28.90
2021,08,11,18,18,28.90
2021,08,11,18,19,28.90
2021,08,11,18,20,28.90
2021,08,11,18,21,28.90
2021,08,11,18,22,28.90
2021,08,11,18,23,28.90
2021,08,11,18,24,28.90
2021,08,11,18,25,28.90
2021,08,11,18,26,29.00
2021,08,11,18,27,29.00
2021,08,11,18,28,29.00
2021,08,11,18,29,29.00
2021,08,11,18,30,29.10
2021,08,11,18,31,29.10
2021,08,11,18,32,29.10
2021,08,11,18,33,29.20
2021,08,11,18,34,29.20
2021,08,11,18,35,29.20
2021,08,11,18,36,29.20
2021,08,11,18,37,29.20
2021,08,11,18,38,29.20
2021,08,11,18,39,29.20
2021,08,11,18,40,29.20
2021,08,11,18,41,29.10
2021,08,11,18,42,29.00
2021,08,11,18,43,28.90
2021,08,11,18,44,28.90
2021,08,11,18,45,28.80
2021,08,11,18,46,28.80
2021,08,11,18,47,28.70
2021,08,11,18,48,28.70
2021,08,11,18,49,28.70
2021,08,11,18,50,28.70
2021,08,11,18,51,28.70
2021,08,11,18,52,28.70
2021,08,11,18,53,28.70
2021,08,11,18,54,28.70
2021,08,11,18,55,28.70
2021,08,11,18,56,28.70
2021,08,11,18,57,28.70
2021,08,11,18,58,28.70
2021,08,11,18,59,28.70
2021,08,11,19,00,28.70
2021,08,11,19,01,28.70
2021,08,11,19,02,28.70
2021,08,11,19,03,28.80
2021,08,11,19,04,28.80
2021,08,11,19,05,28.80
2021,08,11,19,06,28.80
2021,08,11,19,07,28.80
2021,08,11,19,08,28.70
2021,08,11,19,09,28.70
2021,08,11,19,10,28.70
2021,08,11,19,11,28.70
2021,08,11,19,12,28.70
2021,08,11,19,13,28.70
2021,08,11,19,14,28.70
2021,08,11,19,15,28.70
2021,08,11,19,16,28.70
2021,08,11,19,17,28.70
2021,08,11,19,18,28.70
2021,08,11,19,19,28.60
2021,08,11,19,20,28.60
2021,08,11,19,21,28.50
2021,08,11,19,22,28.40
2021,08,11,19,23,28.40
2021,08,11,19,24,28.30
2021,08,11,19,25,28.30
2021,08,11,19,26,28.20
2021,08,11,19,27,28.20
2021,08,11,19,28,28.20
2021,08,11,19,29,28.20
2021,08,11,19,30,28.20
2021,08,11,19,31,28.20
2021,08,11,19,32,28.20
2021,08,11,19,33,28.30
2021,08,11,19,34,28.30
2021,08,11,19,35,28.30
2021,08,11,19,36,28.20
2021,08,11,19,37,28.20
2021,08,11,19,38,28.20
2021,08,11,19,39,28.20
2021,08,11,19,40,28.10
2021,08,11,19,41,28.10
2021,08,11,19,42,28.00
2021,08,11,19,43,27.90
2021,08,11,19,44,27.90
2021,08,11,19,45,27.80
2021,08,11,19,46,27.70
2021,08,11,19,47,27.60
2021,08,11,19,48,27.50
2021,08,11,19,49,27.30
2021,08,11,19,50,27.20
2021,08,11,19,51,27.10
2021,08,11,19,52,26.90
2021,08,11,19,53,26.80
2021,08,11,19,54,26.60
2021,08,11,19,55,26.50
2021,08,11,19,56,26.30
2021,08,11,19,57,26.10
2021,08,11,19,58,25.90
2021,08,11,19,59,25.80
2021,08,11,20,00,25.60
2021,08,11,20,01,25.50
2021,08,11,20,02,25.30
2021,08,11,20,03,25.20
2021,08,11,20,04,25.10
2021,08,11,20,05,25.00
2021,08,11,20,06,24.80
2021,08,11,20,07,24.70
2021,08,11,20,08,24.60
2021,08,11,20,09,24.50
2021,08,11,20,10,24.40
2021,08,11,20,11,24.20
2021,08,11,20,12,24.10
2021,08,11,20,13,24.00
2021,08,11,20,14,23.90
2021,08,11,20,15,23.80
2021,08,11,20,16,23.70
2021,08,11,20,17,23.50
2021,08,11,20,18,23.40
2021,08,11,20,19,23.30
2021,08,11,20,20,23.20
2021,08,11,20,21,23.10
2021,08,11,20,22,23.00
2021,08,11,20,23,22.90
2021,08,11,20,24,22.80
2021,08,11,20,25,22.70
2021,08,11,20,26,22.60
2021,08,11,20,27,22.60
2021,08,11,20,28,22.50
2021,08,11,20,29,22.40
2021,08,11,20,30,22.30
2021,08,11,20,31,22.30
2021,08,11,20,32,22.20
2021,08,11,20,33,22.10
2021,08,11,20,34,22.10
2021,08,11,20,35,22.00
2021,08,11,20,36,21.90
2021,08,11,20,37,21.90
2021,08,11,20,38,21.80
2021,08,11,20,39,21.80
2021,08,11,20,40,21.80
2021,08,11,20,41,21.70
2021,08,11,20,42,21.70
2021,08,11,20,43,21.70
2021,08,11,20,44,21.70
2021,08,11,20,45,21.70
2021,08,11,20,46,21.60
2021,08,11,20,47,21.60
2021,08,11,20,48,21.60
2021,08,11,20,49,21.60
2021,08,11,20,50,21.60
2021,08,11,20,51,21.50
2021,08,11,20,52,21.50
2021,08,11,20,53,21.50
2021,08,11,20,54,21.50
2021,08,11,20,55,21.40
2021,08,11,20,56,21.40
2021,08,11,20,57,21.40
2021,08,11,20,58,21.40
2021,08,11,20,59,21.30
2021,08,11,21,00,21.30
2021,08,11,21,01,21.30
2021,08,11,21,02,21.20
2021,08,11,21,03,21.20
2021,08,11,21,04,21.20
2021,08,11,21,05,21.20
2021,08,11,21,06,21.10
2021,08,11,21,07,21.10
2021,08,11,21,08,21.10
2021,08,11,21,09,21.10
2021,08,11,21,10,21.10
2021,08,11,21,11,21.00
2021,08,11,21,12,21.00
2021,08,11,21,13,20.90
2021,08,11,21,14,20.90
2021,08,11,21,15,20.90
2021,08,11,21,16,20.90
2021,08,11,21,17,20.90
2021,08,11,21,18,20.90
2021,08,11,21,19,20.80
2021,08,11,21,20,20.80
2021,08,11,21,21,20.80
2021,08,11,21,22,20.80
2021,08,11,21,23,20.80
2021,08,11,21,24,20.70
2021,08,11,21,25,20.70
2021,08,11,21,26,20.70
2021,08,11,21,27,20.70
2021,08,11,21,28,20.70
2021,08,11,21,29,20.70
2021,08,11,21,30,20.70
2021,08,11,21,31,20.60
2021,08,11,21,32,20.60
2021,08,11,21,33,20.60
2021,08,11,21,34,20.60
2021,08,11,21,35,20.60
2021,08,11,21,36,20.50
2021,08,11,21,37,20.50
2021,08,11,21,38,20.50
2021,08,11,21,39,20.50
2021,08,11,21,40,20.50
2021,08,11,21,41,20.40
2021,08,11,21,42,20.40
2021,08,11,21,43,20.40
2021,08,11,21,44,20.40
2021,08,11,21,45,20.40
2021,08,11,21,46,20.40
2021,08,11,21,47,20.40
2021,08,11,21,48,20.40
2021,08,11,21,49,20.40
2021,08,11,21,50,20.40
2021,08,11,21,51,20.40
2021,08,11,21,52,20.40
2021,08,11,21,53,20.30
2021,08,11,21,54,20.30
2021,08,11,21,55,20.30
2021,08,11,21,56,20.30
2021,08,11,21,57,20.30
2021,08,11,21,58,20.30
2021,08,11,21,59,20.30
2021,08,11,22,00,20.30
2021,08,11,22,01,20.30
2021,08,11,22,02,20.30
2021,08,11,22,03,20.30
2021,08,11,22,04,20.30
2021,08,11,22,05,20.30
2021,08,11,22,06,20.30
2021,08,11,22,07,20.30
2021,08,11,22,08,20.20
2021,08,11,22,09,20.20
2021,08,11,22,10,20.20
2021,08,11,22,11,20.20
2021,08,11,22,12,20.20
2021,08,11,22,13,20.20
2021,08,11,22,14,20.20
2021,08,11,22,15,20.20
2021,08,11,22,16,20.20
2021,08,11,22,17,20.20
2021,08,11,22,18,20.20
2021,08,11,22,19,20.20
2021,08,11,22,20,20.20
2021,08,11,22,21,20.20
2021,08,11,22,22,20.20
2021,08,11,22,23,20.30
2021,08,11,22,24,20.30
2021,08,11,22,25,20.30
2021,08,11,22,26,20.30
2021,08,11,22,27,20.30
2021,08,11,22,28,20.30
2021,08,11,22,29,20.30
2021,08,11,22,30,20.30
2021,08,11,22,31,20.30
2021,08,11,22,32,20.30
2021,08,11,22,33,20.30
2021,08,11,22,34,20.40
2021,08,11,22,35,20.40
2021,08,11,22,36,20.40
2021,08,11,22,37,20.40
2021,08,11,22,38,20.40
2021,08,11,22,39,20.40
2021,08,11,22,40,20.40
2021,08,11,22,41,20.50
2021,08,11,22,42,20.50
2021,08,11,22,43,20.50
2021,08,11,22,44,20.60
2021,08,11,22,45,20.60
2021,08,11,22,46,20.60
2021,08,11,22,47,20.70
2021,08,11,22,48,20.80
2021,08,11,22,49,20.80
2021,08,11,22,50,20.90
2021,08,11,22,51,20.90
2021,08,11,22,52,21.00
2021,08,11,22,53,21.00
2021,08,11,22,54,21.10
2021,08,11,22,55,21.10
2021,08,11,22,56,21.20
2021,08,11,22,57,21.20
2021,08,11,22,58,21.20
2021,08,11,22,59,21.20
2021,08,11,23,00,21.30
2021,08,11,23,01,21.40
2021,08,11,23,02,21.50
2021,08,11,23,03,21.70
2021,08,11,23,04,21.80
2021,08,11,23,05,22.00
2021,08,11,23,06,22.20
2021,08,11,23,07,22.40
2021,08,11,23,08,22.50
2021,08,11,23,09,22.70
2021,08,11,23,10,22.90
2021,08,11,23,11,23.00
2021,08,11,23,12,23.20
2021,08,11,23,13,23.30
2021,08,11,23,14,23.40
2021,08,11,23,15,23.50
2021,08,11,23,16,23.60
2021,08,11,23,17,23.70
2021,08,11,23,18,23.80
2021,08,11,23,19,23.80
2021,08,11,23,20,23.90
2021,08,11,23,21,24.00
2021,08,11,23,22,24.00
2021,08,11,23,23,24.10
2021,08,11,23,24,24.10
2021,08,11,23,25,24.10
2021,08,11,23,26,24.10
2021,08,11,23,27,24.10
2021,08,11,23,28,24.10
2021,08,11,23,29,24.10
2021,08,11,23,30,24.10
2021,08,11,23,31,24.10
2021,08,11,23,32,24.10
2021,08,11,23,33,24.10
2021,08,11,23,34,24.10
2021,08,11,23,35,24.10
2021,08,11,23,36,24.20
2021,08,11,23,37,24.20
2021,08,11,23,38,24.20
2021,08,11,23,39,24.20
2021,08,11,23,40,24.20
2021,08,11,23,41,24.20
2021,08,11,23,42,24.20
2021,08,11,23,43,24.20
2021,08,11,23,44,24.20
2021,08,11,23,45,24.20
2021,08,11,23,46,24.30
2021,08,11,23,47,24.30
2021,08,11,23,48,24.30
2021,08,11,23,49,24.40
2021,08,11,23,50,24.40
2021,08,11,23,51,24.40
2021,08,11,23,52,24.50
2021,08,11,23,53,24.50
2021,08,11,23,54,24.50
2021,08,11,23,55,24.50
2021,08,11,23,56,24.50
2021,08,11,23,57,24.40
2021,08,11,23,58,24.40
2021,08,11,23,59,24.40
